EZY42PG EGAA-LKPR

Flight info

Callsign EZY42PG
Flight time N/A
Altitude 37000
Route LISBO DCT RINGA DCT BABGU DCT ETIGA DCT INKOB DCT NAPEX M16 DOLAS L603 LAMSO DCT PETIK DCT KUMER DCT TALEG L620 PIKIB T620 LALUK DCT GOLOP
Aircraft A319/M-SDE2E3FGIJ1RWXYZ/LB1

Departure

Time N/A
Airport Belfast International Airport (EGAA)

Arrival

Time 2026-05-01 14:28
Airport Václav Havel Airport Prague (LKPR)
Time Latitude Longitude Altitude Speed Heading
2026-05-01 14:05 51.03440 12.94375 37410 ft 428 kts 103°
2026-05-01 14:05 51.02606 12.98907 37411 ft 428 kts 104°
2026-05-01 14:05 51.00931 13.07913 37409 ft 428 kts 104°
2026-05-01 14:06 50.99258 13.16954 37403 ft 427 kts 104°
2026-05-01 14:06 50.97578 13.26001 37392 ft 428 kts 104°
2026-05-01 14:07 50.95896 13.35078 37399 ft 429 kts 103°
2026-05-01 14:08 50.93477 13.48686 37387 ft 429 kts 102°
2026-05-01 14:08 50.91820 13.57791 37386 ft 430 kts 103°
2026-05-01 14:09 50.90098 13.66857 37385 ft 430 kts 105°
2026-05-01 14:09 50.88891 13.71209 37382 ft 434 kts 117°
2026-05-01 14:09 50.87208 13.75147 36709 ft 440 kts 126°
2026-05-01 14:09 50.85266 13.78970 35244 ft 451 kts 126°
2026-05-01 14:10 50.83268 13.82779 34351 ft 447 kts 127°
2026-05-01 14:10 50.81283 13.86510 33430 ft 441 kts 126°
2026-05-01 14:10 50.79577 13.90461 32540 ft 430 kts 116°
2026-05-01 14:10 50.78113 13.94552 31662 ft 425 kts 116°
2026-05-01 14:11 50.76684 13.98604 30828 ft 420 kts 115°
2026-05-01 14:11 50.73891 14.06568 29054 ft 409 kts 115°
2026-05-01 14:11 50.72536 14.10413 28227 ft 403 kts 115°
2026-05-01 14:12 50.71182 14.14249 27442 ft 397 kts 115°
2026-05-01 14:12 50.69849 14.18013 26672 ft 391 kts 115°
2026-05-01 14:12 50.68523 14.21737 25929 ft 386 kts 115°
2026-05-01 14:12 50.67217 14.25400 25221 ft 381 kts 115°
2026-05-01 14:13 50.65927 14.29020 24525 ft 376 kts 115°
2026-05-01 14:13 50.64655 14.32584 23924 ft 372 kts 115°
2026-05-01 14:13 50.63386 14.36135 23421 ft 369 kts 115°
2026-05-01 14:13 50.62132 14.39634 22903 ft 367 kts 115°
2026-05-01 14:14 50.60663 14.42845 22496 ft 370 kts 131°
2026-05-01 14:14 50.58452 14.44984 22039 ft 379 kts 158°
2026-05-01 14:14 50.55821 14.45513 21459 ft 389 kts 184°
2026-05-01 14:14 50.53245 14.44275 20920 ft 394 kts 206°
2026-05-01 14:15 50.50879 14.42098 20558 ft 390 kts 211°
2026-05-01 14:15 50.48626 14.39753 20116 ft 388 kts 213°
2026-05-01 14:15 50.46418 14.37350 19676 ft 385 kts 212°
2026-05-01 14:15 50.44067 14.35413 19250 ft 379 kts 198°
2026-05-01 14:16 50.41534 14.34444 18822 ft 372 kts 182°
2026-05-01 14:16 50.39018 14.34493 18378 ft 363 kts 168°
2026-05-01 14:16 50.36526 14.35033 17909 ft 361 kts 168°
2026-05-01 14:16 50.34047 14.35556 17466 ft 358 kts 168°
2026-05-01 14:17 50.31577 14.36057 17033 ft 356 kts 168°
2026-05-01 14:17 50.29129 14.36540 16614 ft 354 kts 168°
2026-05-01 14:17 50.26701 14.37016 16204 ft 351 kts 168°
2026-05-01 14:17 50.24282 14.37495 15800 ft 349 kts 168°
2026-05-01 14:18 50.21911 14.37964 15413 ft 347 kts 168°
2026-05-01 14:18 50.19515 14.38440 14984 ft 345 kts 168°
2026-05-01 14:18 50.17141 14.38933 14592 ft 342 kts 165°
2026-05-01 14:18 50.15638 14.39564 14353 ft 335 kts 154°
2026-05-01 14:19 50.13025 14.41965 13812 ft 322 kts 134°
2026-05-01 14:19 50.11565 14.44470 13337 ft 315 kts 122°
2026-05-01 14:19 50.10254 14.47195 12925 ft 313 kts 122°
2026-05-01 14:19 50.08942 14.49892 12505 ft 311 kts 123°
2026-05-01 14:20 50.07638 14.52557 12126 ft 308 kts 123°
2026-05-01 14:20 50.05065 14.57821 11348 ft 303 kts 123°
2026-05-01 14:20 50.03791 14.60423 10960 ft 302 kts 123°
2026-05-01 14:21 50.02540 14.62977 10568 ft 300 kts 124°
2026-05-01 14:21 50.01263 14.65587 10233 ft 296 kts 124°
2026-05-01 14:21 50.00057 14.68051 10049 ft 286 kts 124°
2026-05-01 14:22 49.96893 14.71542 9249 ft 295 kts 172°
2026-05-01 14:22 49.94878 14.71013 8806 ft 301 kts 204°
2026-05-01 14:22 49.93209 14.69071 8399 ft 301 kts 230°
2026-05-01 14:22 49.92248 14.66231 8027 ft 298 kts 257°
2026-05-01 14:23 49.92204 14.63087 7674 ft 290 kts 286°
2026-05-01 14:23 49.93075 14.60455 7548 ft 271 kts 314°
2026-05-01 14:23 49.94309 14.58328 7405 ft 260 kts 314°
2026-05-01 14:23 49.95405 14.56216 7276 ft 242 kts 310°
2026-05-01 14:24 49.96390 14.54193 7109 ft 229 kts 310°
2026-05-01 14:24 49.97339 14.52245 6799 ft 225 kts 310°
2026-05-01 14:24 49.98276 14.50325 6406 ft 222 kts 310°
2026-05-01 14:24 49.99199 14.48436 5979 ft 218 kts 309°
2026-05-01 14:25 50.00111 14.46565 5510 ft 216 kts 309°
2026-05-01 14:25 50.01010 14.44719 5113 ft 212 kts 309°
2026-05-01 14:25 50.01887 14.42919 4684 ft 211 kts 309°
2026-05-01 14:25 50.02768 14.41108 4235 ft 210 kts 308°
2026-05-01 14:26 50.03647 14.39300 3821 ft 209 kts 308°
2026-05-01 14:26 50.05361 14.35772 2793 ft 203 kts 309°
2026-05-01 14:26 50.06199 14.34044 2288 ft 199 kts 309°
2026-05-01 14:27 50.07017 14.32357 1951 ft 186 kts 308°
2026-05-01 14:27 50.07764 14.30815 1723 ft 172 kts 308°
2026-05-01 14:27 50.08463 14.29369 1461 ft 162 kts 307°
2026-05-01 14:28 50.09699 14.26822 1217 ft 118 kts 307°
2026-05-01 14:28 50.10016 14.26172 1197 ft 47 kts 307°
2026-05-01 14:28 50.10196 14.25792 1188 ft 32 kts 307°
2026-05-01 14:28 50.10370 14.25658 1186 ft 24 kts 356°
2026-05-01 14:29 50.10492 14.25766 1186 ft 23 kts 86°
2026-05-01 14:29 50.10521 14.26013 1183 ft 24 kts 79°
2026-05-01 14:30 50.10605 14.26291 1177 ft 0 kts 34°